| time (UTC) | temp F | wind direction | speed MPH | gust MPH | rain 1hr in | rain 24hr in | rain mn in | humidity % | barometer mb |
| 20260509020140 | 50 | 64 | 1.0 | 3.0 | 0.00 | 0.00 | 0.00 | 79 | 1017.8 |
| 20260509015138 | 51 | 64 | 1.0 | 3.0 | 0.00 | 0.00 | 0.00 | 78 | 1017.7 |
| 20260509014134 | 51 | 64 | 1.0 | 3.0 | 0.00 | 0.00 | 0.00 | 77 | 1017.7 |
| 20260509014052 | 51 | 64 | 1.0 | 3.0 | 0.00 | 0.00 | 0.00 | 77 | 1017.8 |
| 20260509012131 | 52 | 64 | 1.0 | 3.0 | 0.00 | 0.00 | 0.00 | 77 | 1017.8 |
| 20260509011134 | 52 | 64 | 1.0 | 3.0 | 0.00 | 0.00 | 0.00 | 78 | 1017.9 |
| 20260509010136 | 52 | 64 | 1.0 | 4.0 | 0.00 | 0.00 | 0.00 | 78 | 1017.9 |
| 20260509005136 | 52 | 64 | 1.0 | 3.0 | 0.00 | 0.00 | 0.00 | 78 | 1017.9 |
| 20260509004136 | 52 | 64 | 1.0 | 3.0 | 0.00 | 0.00 | 0.00 | 78 | 1017.9 |
| 20260509003143 | 52 | 64 | 1.0 | 2.0 | 0.00 | 0.00 | 0.00 | 79 | 1017.9 |
| 20260509002137 | 52 | 64 | 1.0 | 3.0 | 0.00 | 0.00 | 0.00 | 81 | 1017.8 |
| 20260509001228 | 51 | 64 | 1.0 | 2.0 | 0.00 | 0.00 | 0.00 | 83 | 1017.9 |
| 20260509001139 | 51 | 64 | 1.0 | 3.0 | 0.00 | 0.00 | 0.00 | 83 | 1017.9 |
| 20260508235132 | 52 | 64 | 1.0 | 3.0 | 0.00 | 0.00 | 0.00 | 83 | 1017.9 |
| 20260508234135 | 52 | 64 | 1.0 | 3.0 | 0.00 | 0.00 | 0.00 | 83 | 1018.0 |
| 20260508233142 | 52 | 64 | 1.0 | 4.0 | 0.00 | 0.00 | 0.00 | 82 | 1018.1 |
| 20260508232132 | 53 | 64 | 1.0 | 2.0 | 0.00 | 0.00 | 0.00 | 82 | 1018.0 |
| 20260508231246 | 53 | 64 | 1.0 | 3.0 | 0.00 | 0.00 | 0.00 | 81 | 1018.0 |
| 20260508231136 | 53 | 64 | 1.0 | 3.0 | 0.00 | 0.00 | 0.00 | 82 | 1018.1 |
| 20260508225121 | 53 | 64 | 2.0 | 4.0 | 0.00 | 0.00 | 0.00 | 81 | 1018.0 |
| 20260508224123 | 53 | 64 | 1.0 | 3.0 | 0.00 | 0.00 | 0.00 | 81 | 1018.0 |
| 20260508223128 | 53 | 64 | 1.0 | 3.0 | 0.00 | 0.00 | 0.00 | 80 | 1018.1 |
| 20260508222125 | 54 | 64 | 2.0 | 4.0 | 0.00 | 0.00 | 0.00 | 79 | 1018.0 |
| 20260508221558 | 54 | 51 | 2.0 | 4.0 | 0.00 | 0.00 | 0.00 | 78 | 1017.9 |
| 20260508221154 | 54 | 64 | 1.0 | 4.0 | 0.00 | 0.00 | 0.00 | 79 | 1018.0 |
| 20260508220334 | 55 | 63 | 1.0 | 4.0 | 0.00 | 0.00 | 0.00 | 78 | 1017.9 |
| 20260508220141 | 54 | 64 | 1.0 | 4.0 | 0.00 | 0.00 | 0.00 | 78 | 1017.9 |
| 20260508213121 | 55 | 63 | 1.0 | 3.0 | 0.00 | 0.00 | 0.00 | 77 | 1017.9 |
| 20260508212227 | 56 | 55 | 1.0 | 2.0 | 0.00 | 0.00 | 0.00 | 76 | 1017.7 |
| 20260508212125 | 55 | 63 | 1.0 | 4.0 | 0.00 | 0.00 | 0.00 | 77 | 1017.8 |
| 20260508210115 | 56 | 55 | 1.0 | 2.0 | 0.00 | 0.00 | 0.00 | 74 | 1017.7 |
| 20260508205118 | 56 | 55 | 1.0 | 2.0 | 0.00 | 0.00 | 0.00 | 73 | 1017.7 |
| 20260508204121 | 57 | 55 | 1.0 | 2.0 | 0.00 | 0.00 | 0.00 | 72 | 1017.7 |
| 20260508203117 | 57 | 55 | 0.0 | 2.0 | 0.00 | 0.00 | 0.00 | 70 | 1017.7 |
| 20260508202548 | 58 | 55 | 0.0 | 1.0 | 0.00 | 0.00 | 0.00 | 65 | 1017.6 |
| 20260508202152 | 58 | 55 | 0.0 | 0.0 | 0.00 | 0.00 | 0.00 | 68 | 1017.7 |
| 20260508200113 | 58 | 55 | 0.0 | 2.0 | 0.00 | 0.00 | 0.00 | 63 | 1017.5 |
| 20260508195437 | 60 | 55 | 1.0 | 3.0 | 0.00 | 0.00 | 0.00 | 60 | 1017.3 |
| 20260508195149 | 59 | 55 | 0.0 | 2.0 | 0.00 | 0.00 | 0.00 | 61 | 1017.5 |
| 20260508193115 | 60 | 62 | 1.0 | 6.0 | 0.00 | 0.00 | 0.00 | 59 | 1017.3 |
| 20260508192451 | 62 | 38 | 2.0 | 4.0 | 0.00 | 0.00 | 0.00 | 56 | 1017.2 |
| 20260508192136 | 61 | 44 | 1.0 | 4.0 | 0.00 | 0.00 | 0.00 | 57 | 1017.2 |
| 20260508190115 | 62 | 44 | 2.0 | 6.0 | 0.00 | 0.00 | 0.00 | 55 | 1017.0 |
| 20260508185106 | 63 | 38 | 2.0 | 6.0 | 0.00 | 0.00 | 0.00 | 53 | 1016.9 |
| 20260508184107 | 64 | 87 | 1.0 | 2.0 | 0.00 | 0.00 | 0.00 | 53 | 1016.6 |
| 20260508183106 | 64 | 0 | 0.0 | 4.0 | 0.00 | 0.00 | 0.00 | 53 | 1016.7 |
| 20260508182105 | 65 | 69 | 0.0 | 3.0 | 0.00 | 0.00 | 0.00 | 52 | 1016.7 |
| 20260508181104 | 65 | 69 | 1.0 | 3.0 | 0.00 | 0.00 | 0.00 | 53 | 1016.6 |
| 20260508180108 | 65 | 69 | 0.0 | 2.0 | 0.00 | 0.00 | 0.00 | 51 | 1016.5 |
| 20260508175453 | 66 | 59 | 2.0 | 5.0 | 0.00 | 0.00 | 0.00 | 49 | 1016.3 |
| 20260508175152 | 65 | 49 | 2.0 | 5.0 | 0.00 | 0.00 | 0.00 | 51 | 1016.4 |
| 20260508173102 | 67 | 52 | 2.0 | 6.0 | 0.00 | 0.00 | 0.00 | 48 | 1016.2 |
| 20260508172747 | 67 | 54 | 1.0 | 4.0 | 0.00 | 0.00 | 0.00 | 48 | 1016.2 |
| 20260508172202 | 67 | 39 | 2.0 | 4.0 | 0.00 | 0.00 | 0.00 | 48 | 1016.1 |
| 20260508170109 | 67 | 61 | 1.0 | 3.0 | 0.00 | 0.00 | 0.00 | 47 | 1016.2 |
| 20260508165109 | 67 | 41 | 1.0 | 4.0 | 0.00 | 0.00 | 0.00 | 48 | 1016.1 |
| 20260508164116 | 66 | 53 | 1.0 | 5.0 | 0.00 | 0.00 | 0.00 | 51 | 1016.2 |
| 20260508163109 | 66 | 57 | 2.0 | 5.0 | 0.00 | 0.00 | 0.00 | 49 | 1016.1 |
| 20260508162119 | 66 | 46 | 2.0 | 7.0 | 0.00 | 0.00 | 0.00 | 50 | 1016.1 |
| 20260508161120 | 66 | 15 | 2.0 | 6.0 | 0.00 | 0.00 | 0.00 | 49 | 1016.2 |
| 20260508160058 | 67 | 57 | 2.0 | 5.0 | 0.00 | 0.00 | 0.00 | 48 | 1016.1 |
| 20260508155059 | 67 | 51 | 2.0 | 7.0 | 0.00 | 0.00 | 0.00 | 48 | 1016.1 |
| 20260508154601 | 70 | 45 | 3.0 | 10.0 | 0.00 | 0.00 | 0.00 | 43 | 1016.1 |
| 20260508154139 | 69 | 49 | 3.0 | 6.0 | 0.00 | 0.00 | 0.00 | 45 | 1016.1 |
| 20260508152619 | 69 | 51 | 1.0 | 5.0 | 0.00 | 0.00 | 0.00 | 43 | 1016.1 |
| 20260508151111 | 70 | 92 | 1.0 | 6.0 | 0.00 | 0.00 | 0.00 | 45 | 1016.1 |
| 20260508150057 | 68 | 86 | 1.0 | 3.0 | 0.00 | 0.00 | 0.00 | 46 | 1016.2 |
| 20260508145053 | 69 | 46 | 1.0 | 6.0 | 0.00 | 0.00 | 0.00 | 44 | 1016.2 |
| 20260508144056 | 68 | 50 | 2.0 | 7.0 | 0.00 | 0.00 | 0.00 | 44 | 1016.2 |
| 20260508143053 | 69 | 111 | 4.0 | 10.0 | 0.00 | 0.00 | 0.00 | 43 | 1016.4 |
| 20260508142439 | 68 | 149 | 2.0 | 7.0 | 0.00 | 0.00 | 0.00 | 46 | 1016.4 |
| 20260508142120 | 69 | 52 | 2.0 | 8.0 | 0.00 | 0.00 | 0.00 | 46 | 1016.3 |
| 20260508140054 | 69 | 57 | 2.0 | 6.0 | 0.00 | 0.00 | 0.00 | 44 | 1016.4 |
| 20260508135053 | 68 | 52 | 1.0 | 6.0 | 0.00 | 0.00 | 0.00 | 44 | 1016.4 |
| 20260508134055 | 70 | 42 | 2.0 | 11.0 | 0.00 | 0.00 | 0.00 | 42 | 1016.4 |
| 20260508133049 | 68 | 113 | 3.0 | 10.0 | 0.00 | 0.00 | 0.00 | 46 | 1016.4 |
| 20260508132048 | 68 | 119 | 4.0 | 10.0 | 0.00 | 0.00 | 0.00 | 43 | 1016.6 |
| 20260508131048 | 70 | 134 | 3.0 | 9.0 | 0.00 | 0.00 | 0.00 | 42 | 1016.5 |
| 20260508130340 | 67 | 157 | 2.0 | 10.0 | 0.00 | 0.00 | 0.00 | 49 | 1016.7 |
| 20260508130122 | 69 | 109 | 2.0 | 7.0 | 0.00 | 0.00 | 0.00 | 48 | 1016.6 |
| 20260508124816 | 65 | 64 | 1.0 | 5.0 | 0.00 | 0.00 | 0.00 | 50 | 1016.7 |
| 20260508124140 | 66 | 44 | 2.0 | 7.0 | 0.00 | 0.00 | 0.00 | 51 | 1016.7 |
| 20260508123053 | 66 | 84 | 1.0 | 7.0 | 0.00 | 0.00 | 0.00 | 49 | 1016.7 |
| 20260508121051 | 65 | 51 | 2.0 | 5.0 | 0.00 | 0.00 | 0.00 | 51 | 1016.6 |
| 20260508120048 | 65 | 44 | 2.0 | 9.0 | 0.00 | 0.00 | 0.00 | 50 | 1016.7 |
| 20260508115049 | 66 | 50 | 2.0 | 6.0 | 0.00 | 0.00 | 0.00 | 51 | 1016.6 |
| 20260508114049 | 65 | 148 | 2.0 | 8.0 | 0.00 | 0.00 | 0.00 | 53 | 1016.7 |
| 20260508113047 | 66 | 60 | 1.0 | 5.0 | 0.00 | 0.00 | 0.00 | 49 | 1016.8 |
| 20260508112043 | 65 | 355 | 1.0 | 5.0 | 0.00 | 0.00 | 0.00 | 50 | 1016.8 |
| 20260508111042 | 67 | 105 | 2.0 | 11.0 | 0.00 | 0.00 | 0.00 | 48 | 1016.9 |
| 20260508110041 | 66 | 45 | 2.0 | 9.0 | 0.00 | 0.00 | 0.00 | 50 | 1016.9 |
| 20260508105043 | 65 | 87 | 2.0 | 6.0 | 0.00 | 0.00 | 0.00 | 54 | 1016.9 |
| 20260508104823 | 65 | 126 | 3.0 | 10.0 | 0.00 | 0.00 | 0.00 | 53 | 1017.0 |
| 20260508104202 | 66 | 140 | 1.0 | 3.0 | 0.00 | 0.00 | 0.00 | 53 | 1016.9 |
| 20260508102044 | 66 | 86 | 2.0 | 6.0 | 0.00 | 0.00 | 0.00 | 54 | 1017.1 |
| 20260508101041 | 66 | 123 | 3.0 | 7.0 | 0.00 | 0.00 | 0.00 | 54 | 1017.1 |
| 20260508100039 | 65 | 122 | 2.0 | 6.0 | 0.00 | 0.00 | 0.00 | 54 | 1017.1 |
| 20260508095042 | 65 | 40 | 3.0 | 10.0 | 0.00 | 0.00 | 0.00 | 55 | 1017.1 |
| 20260508094039 | 65 | 132 | 2.0 | 8.0 | 0.00 | 0.00 | 0.00 | 55 | 1017.1 |
| 20260508093043 | 64 | 139 | 2.0 | 8.0 | 0.00 | 0.00 | 0.00 | 56 | 1017.0 |
| 20260508092038 | 63 | 49 | 1.0 | 4.0 | 0.00 | 0.00 | 0.00 | 57 | 1017.0 |
| 20260508091041 | 64 | 138 | 1.0 | 4.0 | 0.00 | 0.00 | 0.00 | 61 | 1017.2 |
| 20260508090035 | 62 | 136 | 0.0 | 3.0 | 0.00 | 0.00 | 0.00 | 61 | 1017.2 |
| 20260508085040 | 62 | 53 | 1.0 | 3.0 | 0.00 | 0.00 | 0.00 | 60 | 1017.1 |
| 20260508084036 | 62 | 204 | 1.0 | 4.0 | 0.00 | 0.00 | 0.00 | 65 | 1017.1 |
| 20260508083038 | 61 | 123 | 1.0 | 4.0 | 0.00 | 0.00 | 0.00 | 64 | 1017.1 |
| 20260508082030 | 61 | 123 | 1.0 | 3.0 | 0.00 | 0.00 | 0.00 | 64 | 1017.2 |
| 20260508081035 | 60 | 123 | 0.0 | 3.0 | 0.00 | 0.00 | 0.00 | 66 | 1017.1 |
| 20260508080029 | 60 | 123 | 0.0 | 1.0 | 0.00 | 0.00 | 0.00 | 68 | 1017.1 |
| 20260508075758 | 56 | 123 | 2.0 | 5.0 | 0.00 | 0.00 | 0.00 | 73 | 1017.0 |
| 20260508075239 | 58 | 123 | 1.0 | 4.0 | 0.00 | 0.00 | 0.00 | 72 | 1017.0 |
| 20260508075040 | 58 | 123 | 0.0 | 1.0 | 0.00 | 0.00 | 0.00 | 69 | 1017.0 |
| 20260508073232 | 57 | 123 | 0.0 | 3.0 | 0.00 | 0.00 | 0.00 | 72 | 1017.0 |
| 20260508072230 | 57 | 123 | 1.0 | 4.0 | 0.00 | 0.00 | 0.00 | 73 | 1017.0 |
| 20260508070030 | 56 | 111 | 1.0 | 4.0 | 0.00 | 0.00 | 0.00 | 73 | 1016.9 |
| 20260508065034 | 56 | 109 | 1.0 | 3.0 | 0.00 | 0.00 | 0.00 | 75 | 1016.8 |
| 20260508064033 | 55 | 71 | 0.0 | 3.0 | 0.00 | 0.00 | 0.00 | 75 | 1016.8 |
| 20260508063025 | 55 | 71 | 0.0 | 2.0 | 0.00 | 0.00 | 0.00 | 77 | 1016.7 |
| 20260508062034 | 55 | 71 | 0.0 | 1.0 | 0.00 | 0.00 | 0.00 | 78 | 1016.7 |
| 20260508061026 | 54 | 71 | 0.0 | 1.0 | 0.00 | 0.00 | 0.00 | 79 | 1016.6 |
| 20260508060032 | 54 | 71 | 0.0 | 2.0 | 0.00 | 0.00 | 0.00 | 81 | 1016.7 |
| 20260508055746 | 53 | 71 | 0.0 | 2.0 | 0.00 | 0.00 | 0.00 | 83 | 1016.6 |
| 20260508055227 | 52 | 71 | 0.0 | 2.0 | 0.00 | 0.00 | 0.00 | 84 | 1016.6 |
| 20260508055030 | 53 | 71 | 0.0 | 2.0 | 0.00 | 0.00 | 0.00 | 82 | 1016.6 |
| 20260508052022 | 52 | 71 | 1.0 | 2.0 | 0.00 | 0.00 | 0.00 | 85 | 1016.4 |
| 20260508051012 | 52 | 71 | 1.0 | 3.0 | 0.00 | 0.00 | 0.00 | 85 | 1016.3 |
| 20260508050012 | 52 | 71 | 1.0 | 3.0 | 0.00 | 0.00 | 0.00 | 85 | 1016.2 |
| 20260508045011 | 51 | 71 | 1.0 | 3.0 | 0.00 | 0.00 | 0.00 | 86 | 1016.2 |
| 20260508044009 | 51 | 71 | 1.0 | 2.0 | 0.00 | 0.00 | 0.00 | 86 | 1016.2 |
| 20260508043340 | 52 | 71 | 1.0 | 2.0 | 0.00 | 0.00 | 0.00 | 85 | 1016.3 |
| 20260508043015 | 52 | 71 | 0.0 | 2.0 | 0.00 | 0.00 | 0.00 | 86 | 1016.2 |
| 20260508041015 | 51 | 101 | 0.0 | 1.0 | 0.00 | 0.00 | 0.00 | 86 | 1016.2 |
| 20260508040016 | 51 | 101 | 0.0 | 1.0 | 0.00 | 0.00 | 0.00 | 87 | 1016.1 |
| 20260508035011 | 51 | 101 | 0.0 | 1.0 | 0.00 | 0.00 | 0.00 | 87 | 1016.1 |
| 20260508034702 | 51 | 49 | 0.0 | 2.0 | 0.00 | 0.00 | 0.00 | 88 | 1016.1 |
| 20260508034602 | 51 | 146 | 0.0 | 1.0 | 0.00 | 0.00 | 0.00 | 88 | 1016.1 |
| 20260508034128 | 51 | 30 | 0.0 | 2.0 | 0.00 | 0.00 | 0.00 | 88 | 1016.1 |
| 20260508031010 | 51 | 49 | 0.0 | 2.0 | 0.00 | 0.00 | 0.00 | 88 | 1016.1 |
| 20260508030853 | 51 | 49 | 0.0 | 1.0 | 0.00 | 0.00 | 0.00 | 88 | 1016.0 |
| 20260508025005 | 51 | 49 | 0.0 | 1.0 | 0.00 | 0.00 | 0.00 | 88 | 1016.1 |
| 20260508024047 | 51 | 49 | 0.0 | 0.0 | 0.00 | 0.00 | 0.00 | 89 | 1016.0 |
| 20260508024004 | 51 | 49 | 0.0 | 1.0 | 0.00 | 0.00 | 0.00 | 89 | 1016.0 |
| 20260508023916 | 51 | 49 | 0.0 | 2.0 | 0.00 | 0.00 | 0.00 | 89 | 1016.1 |
| 20260508021008 | 51 | 49 | 0.0 | 2.0 | 0.00 | 0.00 | 0.00 | 89 | 1016.2 |